Погода в Фрунзе

Россия / Республика Крым     45°18′01″N   34°42′28″E
темп.,
°C
ветер,
м/с
пор.,
м/с
влажн.,
%
обл.,
%
осадки,
мм/ч
давл.,
гПа
погр.,
м
12 апреля, пн
пн1200:00+7зсз2288100 0.6 102065
03:00+7зсз2395100 3.9 1020162
06:00+7зюз1196100 0.0 102072
09:00+8ю1194100 0.0 1020253
12:00+12ююв1274100 0.0 1020664
15:00+14св1165100 0.1 10191109
18:00+12св2383100 0.1 1020119
21:00+11с0289100 0.2 102178
13 апреля, вт
вт1300:00+9з239289 0.0 102193
03:00+9зсз349051 0.0 1021142
06:00+8зсз2293100 0.0 102189
09:00+10зсз018688 0.0 1022211
12:00+13в237099 0.1 1021970
15:00+15всв335823 0.3 10201259
18:00+13с2373100 0.1 1020339
21:00+10з468073 0.1 1020274
14 апреля, ср
ср1400:00+8зюз128973 0.0 102026
03:00+7юв11895 0.0 101910
06:00+5св11895 0.0 101910
09:00+10в34665 0.0 1018442
12:00+16юв454386 0.0 10171164
15:00+17ююв5540100 0.0 10151386
18:00+13юв4755100 0.0 1015400
21:00+9юв357187 0.0 1015146
15 апреля, чт
чт1500:00+8ююв3376100 0.0 101452
03:00+8ююв2275100 0.0 101432
06:00+7юз227498 0.0 101415
09:00+8з3489100 1.7 1014174
12:00+10юв2382100 0.9 1014211
15:00+13з4474100 1.3 1014873
18:00+10з578395 0.4 1014531
21:00+9з488491 0.4 1015424
16 апреля, пт
пт1600:00+8зюз3983100 0.0 1014459
03:00+8ююз3681100 0.0 1014259
06:00+8юз51088100 0.1 1014747
09:00+9юз61086100 0.1 10151039
12:00+11зюз8117324 0.1 10161152
15:00+12зюз9116145 0.1 10161537
18:00+10зюз8117252 0.0 10171052
21:00+8зюз81171100 0.0 10181069